Silver Bay, MN

4:15 PM CST on February 21, 2018 (GMT -0600)
Silver Bay Municipal

Weather History for KBFW - September, 2012

Change the Weather History Date:

Sunday, September 16, 2012

  Actual Average Record
Temperature  
Mean Temperature 56 °F -  
Max Temperature 75 °F 63 °F 80 °F (2015)
Min Temperature 37 °F 41 °F 24 °F (2011)
Degree Days  
Heating Degree Days 9    
Growing Degree Days 6 (Base 50)    
Moisture  
Dew Point 39 °F    
Average Humidity 57    
Maximum Humidity 93    
Minimum Humidity 20    
Precipitation  
Precipitation 0.00 in - - ()
Sea Level Pressure  
Sea Level Pressure 29.86 in    
Wind  
Wind Speed 2 mph (WNW)    
Max Wind Speed 10 mph    
Max Gust Speed -    
Visibility 10 miles    
Events      
Averages and records for this station are not official NWS values.
T = Trace of Precipitation, MM = Missing Value Source: NWS Daily Summary

Daily Weather History Graph

Daily Weather History Graph

Search for Another Location

Airport or City:

Trip Planner

Search our weather history database for the weather conditions in past years. The results will help you decide how hot, cold, wet, or windy it might be!

Date:

Astronomy

Sep. 16, 2012 Rise Set
Actual Time 6:45 AM CDT 7:14 PM CDT
Civil Twilight 6:14 AM CDT 7:45 PM CDT
Nautical Twilight 5:38 AM CDT 8:21 PM CDT
Astronomical Twilight 5:00 AM CDT 8:59 PM CDT
Moon 7:31 AM CDT (9/16) 7:10 PM CDT (9/16)
Length of Visible Light 13h 30m
Length of Day
12h 29m
New Moon, 0% of the Moon is Illuminated
Sep 16
New Moon
Sep 22
First Quarter
Sep 29
Full
Oct 8
Last Quarter
Oct 15
New

Hourly Weather History & Observations

Time (CDT) Temp. Windchill Dew Point Humidity Pressure Visibility Wind Dir Wind Speed Gust Speed Precip Events Conditions
12:17 AM 42.8 °F - 37.4 °F 81% 29.91 in 10.0 mi Calm Calm - N/A   Clear
12:37 AM 41.0 °F - 35.6 °F 81% 29.91 in 10.0 mi Calm Calm - N/A   Clear
12:58 AM 42.8 °F - 39.2 °F 87% 29.90 in 10.0 mi Calm Calm - N/A   Clear
1:17 AM 41.0 °F 39.0 °F 37.4 °F 87% 29.90 in 10.0 mi North 3.5 mph - N/A   Clear
1:37 AM 41.0 °F - 37.4 °F 87% 29.90 in 10.0 mi Calm Calm - N/A   Clear
1:57 AM 41.0 °F - 37.4 °F 87% 29.90 in 10.0 mi Calm Calm - N/A   Clear
2:17 AM 39.2 °F - 37.4 °F 93% 29.89 in 10.0 mi Calm Calm - N/A   Clear
2:37 AM 41.0 °F - 37.4 °F 87% 29.89 in 10.0 mi Calm Calm - N/A   Clear
2:57 AM 41.0 °F - 37.4 °F 87% 29.89 in 10.0 mi Calm Calm - N/A   Clear
3:17 AM 39.2 °F - 37.4 °F 93% 29.88 in 10.0 mi Calm Calm - N/A   Clear
3:37 AM 39.2 °F - 37.4 °F 93% 29.88 in 10.0 mi Calm Calm - N/A   Clear
3:57 AM 39.2 °F - 37.4 °F 93% 29.87 in 10.0 mi Calm Calm - N/A   Clear
4:17 AM 39.2 °F - 35.6 °F 87% 29.87 in 10.0 mi Calm Calm - N/A   Clear
4:37 AM 39.2 °F - 35.6 °F 87% 29.86 in 10.0 mi Calm Calm - N/A   Clear
4:57 AM 37.4 °F - 35.6 °F 93% 29.86 in 10.0 mi Calm Calm - N/A   Clear
5:17 AM 37.4 °F - 35.6 °F 93% 29.85 in 10.0 mi Calm Calm - N/A   Clear
5:57 AM 37.4 °F - 35.6 °F 93% 29.85 in 10.0 mi Calm Calm - N/A   Clear
6:17 AM 37.4 °F - 35.6 °F 93% 29.85 in 10.0 mi Calm Calm - N/A   Clear
6:37 AM 37.4 °F - 33.8 °F 87% 29.85 in 10.0 mi Calm Calm - N/A   Clear
6:57 AM 37.4 °F - 33.8 °F 87% 29.85 in 10.0 mi Calm Calm - N/A   Clear
7:37 AM 39.2 °F - 35.6 °F 87% 29.86 in 10.0 mi Calm Calm - N/A   Clear
7:57 AM 42.8 °F - 37.4 °F 81% 29.86 in 10.0 mi Calm Calm - N/A   Clear
8:17 AM 46.4 °F - 41.0 °F 81% 29.85 in 10.0 mi Calm Calm - N/A   Clear
8:37 AM 51.8 °F - 44.6 °F 76% 29.85 in 10.0 mi Calm Calm - N/A   Clear
8:57 AM 55.4 °F - 46.4 °F 72% 29.86 in 10.0 mi Calm Calm - N/A   Clear
9:17 AM 57.2 °F - 46.4 °F 67% 29.86 in 10.0 mi Calm Calm - N/A   Clear
9:37 AM 60.8 °F - 48.2 °F 63% 29.85 in 10.0 mi Calm Calm - N/A   Clear
9:57 AM 64.4 °F - 46.4 °F 52% 29.85 in 10.0 mi WSW 3.5 mph - N/A   Clear
10:17 AM 66.2 °F - 46.4 °F 49% 29.86 in 10.0 mi West 3.5 mph - N/A   Clear
10:37 AM 69.8 °F - 44.6 °F 40% 29.85 in 10.0 mi NNE 5.8 mph - N/A   Clear
10:57 AM 69.8 °F - 42.8 °F 38% 29.85 in 10.0 mi North 6.9 mph - N/A   Clear
11:17 AM 71.6 °F - 42.8 °F 35% 29.85 in 10.0 mi Calm Calm - N/A   Clear
11:37 AM 73.4 °F - 42.8 °F 33% 29.84 in 10.0 mi East 4.6 mph - N/A   Clear
11:57 AM 75.2 °F - 42.8 °F 31% 29.84 in 10.0 mi Calm Calm - N/A   Clear
12:17 PM 75.2 °F - 44.6 °F 34% 29.84 in 10.0 mi SSE 4.6 mph - N/A   Clear
12:37 PM 71.6 °F - 46.4 °F 41% 29.83 in 10.0 mi South 8.1 mph - N/A   Clear
12:57 PM 71.6 °F - 46.4 °F 41% 29.84 in 10.0 mi South 8.1 mph - N/A   Clear
1:17 PM 71.6 °F - 46.4 °F 41% 29.83 in 10.0 mi SSE 8.1 mph - N/A   Clear
1:37 PM 71.6 °F - 44.6 °F 38% 29.84 in 10.0 mi South 6.9 mph - N/A   Clear
1:57 PM 71.6 °F - 44.6 °F 38% 29.83 in 10.0 mi South 8.1 mph - N/A   Clear
2:17 PM 73.4 °F - 44.6 °F 36% 29.82 in 10.0 mi South 8.1 mph - N/A   Clear
2:37 PM 71.6 °F - 42.8 °F 35% 29.83 in 10.0 mi South 10.4 mph - N/A   Clear
2:57 PM 71.6 °F - 42.8 °F 35% 29.83 in 10.0 mi South 9.2 mph - N/A   Clear
3:17 PM 69.8 °F - 42.8 °F 38% 29.82 in 10.0 mi South 5.8 mph - N/A   Clear
3:37 PM 71.6 °F - 41.0 °F 33% 29.82 in 10.0 mi SSW 8.1 mph - N/A   Clear
3:57 PM 71.6 °F - 41.0 °F 33% 29.82 in 10.0 mi South 5.8 mph - N/A   Clear
4:17 PM 71.6 °F - 39.2 °F 31% 29.82 in 10.0 mi South 4.6 mph - N/A   Clear
4:37 PM 71.6 °F - 39.2 °F 31% 29.82 in 10.0 mi South 4.6 mph - N/A   Clear
4:57 PM 73.4 °F - 39.2 °F 29% 29.83 in 10.0 mi Calm Calm - N/A   Clear
5:17 PM 73.4 °F - 30.2 °F 20% 29.83 in 10.0 mi NW 6.9 mph - N/A   Clear
5:37 PM 71.6 °F - 30.2 °F 22% 29.83 in 10.0 mi NW 3.5 mph - N/A   Clear
6:17 PM 69.8 °F - 30.2 °F 23% 29.85 in 10.0 mi NW 5.8 mph - N/A   Clear
6:37 PM 66.2 °F - 32.0 °F 28% 29.86 in 10.0 mi Calm Calm - N/A   Clear
6:57 PM 66.2 °F - 33.8 °F 30% 29.86 in 10.0 mi NNW 4.6 mph - N/A   Clear
7:17 PM 64.4 °F - 33.8 °F 32% 29.88 in 10.0 mi NW 4.6 mph - N/A   Clear
7:37 PM 64.4 °F - 33.8 °F 32% 29.89 in 10.0 mi NNW 5.8 mph - N/A   Scattered Clouds
7:57 PM 64.4 °F - 33.8 °F 32% 29.89 in 10.0 mi NW 3.5 mph - N/A   Scattered Clouds
8:17 PM 62.6 °F - 35.6 °F 37% 29.89 in 10.0 mi NW 5.8 mph - N/A   Scattered Clouds
8:37 PM 62.6 °F - 35.6 °F 37% 29.89 in 10.0 mi NNW 4.6 mph - N/A   Scattered Clouds
8:57 PM 62.6 °F - 37.4 °F 39% 29.89 in 10.0 mi NNW 4.6 mph - N/A   Scattered Clouds
9:17 PM 60.8 °F - 37.4 °F 42% 29.89 in 10.0 mi NNW 4.6 mph - N/A   Scattered Clouds
9:37 PM 60.8 °F - 37.4 °F 42% 29.88 in 10.0 mi NNW 4.6 mph - N/A   Mostly Cloudy
9:57 PM 60.8 °F - 37.4 °F 42% 29.88 in 10.0 mi NNW 6.9 mph - N/A   Overcast
10:17 PM 60.8 °F - 37.4 °F 42% 29.89 in 10.0 mi NNW 9.2 mph - N/A   Overcast
10:37 PM 59.0 °F - 39.2 °F 48% 29.90 in 10.0 mi NNW 6.9 mph - N/A   Drizzle
10:57 PM 55.4 °F - 42.8 °F 63% 29.91 in 10.0 mi NW 4.6 mph - N/A   Drizzle
11:17 PM 55.4 °F - 42.8 °F 63% 29.91 in 10.0 mi Calm Calm - N/A   Drizzle
11:37 PM 53.6 °F - 42.8 °F 67% 29.91 in 10.0 mi Calm Calm - N/A   Light Drizzle
11:58 PM 53.6 °F - 42.8 °F 67% 29.91 in 10.0 mi Calm Calm - N/A   Light Drizzle